EZY62FE EKCH-EGKK

Flight info

Callsign EZY62FE
Flight time N/A
Altitude 38000
Route ODDON DCT LONAM DCT BINBO DCT AKOKO N866 BUKUT P7 BARMI
Aircraft A319/M-SDE2E3FGIJ1RWXYZ/LB1

Departure

Time 2026-04-30 19:55
Airport Copenhagen Kastrup Airport (EKCH)

Arrival

Time N/A
Airport London Gatwick Airport (EGKK)
Time Latitude Longitude Altitude Speed Heading
2026-04-30 19:38 55.62519 12.65576 20 ft 0 kts 23°
2026-04-30 19:46 55.62508 12.65568 17 ft 4 kts 23°
2026-04-30 19:46 55.62483 12.65549 18 ft 4 kts 23°
2026-04-30 19:47 55.62462 12.65534 18 ft 4 kts
2026-04-30 19:47 55.62449 12.65536 20 ft 4 kts 308°
2026-04-30 19:47 55.62441 12.65592 17 ft 4 kts 270°
2026-04-30 19:47 55.62441 12.65610 17 ft 0 kts 269°
2026-04-30 19:49 55.62441 12.65606 17 ft 1 kts 269°
2026-04-30 19:49 55.62441 12.65557 19 ft 7 kts 270°
2026-04-30 19:50 55.62440 12.65427 17 ft 12 kts 268°
2026-04-30 19:50 55.62435 12.65270 17 ft 13 kts 261°
2026-04-30 19:50 55.62370 12.65205 17 ft 11 kts 179°
2026-04-30 19:50 55.62290 12.65204 17 ft 11 kts 183°
2026-04-30 19:51 55.62208 12.65180 17 ft 14 kts 204°
2026-04-30 19:51 55.62121 12.65079 19 ft 17 kts 214°
2026-04-30 19:51 55.62015 12.64957 18 ft 20 kts 211°
2026-04-30 19:51 55.61890 12.64816 17 ft 21 kts 212°
2026-04-30 19:52 55.61770 12.64679 18 ft 21 kts 213°
2026-04-30 19:52 55.61646 12.64540 18 ft 21 kts 212°
2026-04-30 19:52 55.61520 12.64395 17 ft 22 kts 213°
2026-04-30 19:52 55.61391 12.64244 17 ft 23 kts 213°
2026-04-30 19:53 55.61257 12.64091 19 ft 23 kts 213°
2026-04-30 19:53 55.61119 12.63930 17 ft 24 kts 213°
2026-04-30 19:53 55.60979 12.63771 18 ft 22 kts 213°
2026-04-30 19:53 55.60855 12.63626 17 ft 19 kts 212°
2026-04-30 19:54 55.60746 12.63668 18 ft 19 kts 131°
2026-04-30 19:54 55.60677 12.63811 18 ft 10 kts 129°
2026-04-30 19:54 55.60701 12.63910 19 ft 13 kts 40°
2026-04-30 19:54 55.60933 12.64264 20 ft 86 kts 41°
2026-04-30 19:55 55.61588 12.65274 56 ft 152 kts 39°
2026-04-30 19:55 55.62365 12.66490 778 ft 150 kts 40°
2026-04-30 19:55 55.63159 12.67761 1470 ft 158 kts 37°
2026-04-30 19:55 55.64049 12.69131 1943 ft 181 kts 37°
2026-04-30 19:56 55.65078 12.70651 2392 ft 205 kts 31°
2026-04-30 19:56 55.66501 12.71268 2873 ft 227 kts 353°
2026-04-30 19:56 55.68128 12.70633 3523 ft 249 kts 346°
2026-04-30 19:56 55.69848 12.69905 4456 ft 258 kts 349°
2026-04-30 19:57 55.71638 12.69465 5494 ft 262 kts 356°
2026-04-30 19:57 55.73463 12.69265 6562 ft 264 kts 359°
2026-04-30 19:57 55.75298 12.69145 7575 ft 266 kts
2026-04-30 19:57 55.77144 12.69031 8558 ft 270 kts 360°
2026-04-30 19:58 55.79056 12.68825 9551 ft 275 kts 352°
2026-04-30 19:58 55.80853 12.67581 10473 ft 284 kts 328°
2026-04-30 19:58 55.82252 12.64987 11098 ft 306 kts 303°
2026-04-30 19:58 55.82838 12.61196 11546 ft 334 kts 272°
2026-04-30 19:59 55.82519 12.57090 12265 ft 345 kts 261°
2026-04-30 19:59 55.82022 12.52873 13070 ft 351 kts 259°
2026-04-30 19:59 55.80908 12.44211 14609 ft 363 kts 259°
2026-04-30 20:00 55.80358 12.39859 15365 ft 366 kts 259°
2026-04-30 20:00 55.79811 12.35419 16131 ft 369 kts 260°
2026-04-30 20:00 55.79269 12.30949 16888 ft 372 kts 260°
2026-04-30 20:00 55.78725 12.26431 17652 ft 375 kts 261°
2026-04-30 20:01 55.77627 12.17296 19102 ft 381 kts 261°
2026-04-30 20:01 55.77068 12.12678 19758 ft 384 kts 261°
2026-04-30 20:01 55.76499 12.08025 20419 ft 387 kts 261°
2026-04-30 20:02 55.75341 11.98619 21737 ft 393 kts 261°
2026-04-30 20:02 55.74753 11.93866 22389 ft 396 kts 261°
2026-04-30 20:03 55.73561 11.84251 23670 ft 402 kts 260°
2026-04-30 20:03 55.72955 11.79388 24250 ft 405 kts 260°
2026-04-30 20:03 55.72341 11.74492 24781 ft 408 kts 260°
2026-04-30 20:03 55.71720 11.69565 25309 ft 410 kts 260°
2026-04-30 20:04 55.71095 11.64611 25838 ft 413 kts 260°
2026-04-30 20:04 55.70467 11.59635 26357 ft 415 kts 260°
2026-04-30 20:04 55.69833 11.54634 26865 ft 417 kts 260°
2026-04-30 20:05 55.68544 11.44531 27861 ft 422 kts 260°
2026-04-30 20:05 55.67889 11.39451 28350 ft 425 kts 260°
2026-04-30 20:05 55.66563 11.29187 29319 ft 429 kts 260°
2026-04-30 20:06 55.66122 11.25764 29649 ft 431 kts 260°
2026-04-30 20:06 55.65451 11.20578 30112 ft 433 kts 260°
2026-04-30 20:06 55.64772 11.15374 30569 ft 435 kts 260°
2026-04-30 20:06 55.64085 11.10144 30959 ft 437 kts 260°
2026-04-30 20:07 55.63394 11.04904 31333 ft 439 kts 260°
2026-04-30 20:07 55.62695 10.99612 31701 ft 442 kts 260°
2026-04-30 20:07 55.61287 10.88996 32543 ft 443 kts 259°
2026-04-30 20:08 55.60578 10.83698 33059 ft 441 kts 259°
2026-04-30 20:08 55.59874 10.78466 33561 ft 440 kts 259°
2026-04-30 20:08 55.59157 10.73180 34074 ft 439 kts 259°
2026-04-30 20:08 55.58447 10.67941 34569 ft 437 kts 259°
2026-04-30 20:09 55.57552 10.62801 34987 ft 439 kts 251°
2026-04-30 20:09 55.56441 10.57787 35401 ft 438 kts 251°
2026-04-30 20:09 55.54209 10.47801 36207 ft 436 kts 250°
2026-04-30 20:10 55.51974 10.37868 36952 ft 435 kts 250°
2026-04-30 20:10 55.50860 10.32920 37314 ft 434 kts 250°
2026-04-30 20:10 55.49745 10.27981 37660 ft 433 kts 250°
2026-04-30 20:11 55.47514 10.18132 38344 ft 432 kts 250°
2026-04-30 20:11 55.46399 10.13217 38449 ft 431 kts 250°
2026-04-30 20:11 55.45287 10.08318 38458 ft 430 kts 250°
2026-04-30 20:12 55.41954 9.93689 38461 ft 429 kts 250°
2026-04-30 20:13 55.39714 9.83971 38461 ft 429 kts 249°
2026-04-30 20:13 55.37464 9.74270 38464 ft 428 kts 249°
2026-04-30 20:14 55.35214 9.64582 38465 ft 428 kts 249°
2026-04-30 20:14 55.32959 9.54900 38467 ft 428 kts 249°
2026-04-30 20:15 55.30699 9.45234 38469 ft 428 kts 249°
2026-04-30 20:15 55.28429 9.35567 38467 ft 428 kts 249°
2026-04-30 20:16 55.26148 9.25919 38470 ft 428 kts 249°
2026-04-30 20:16 55.23871 9.16346 38472 ft 428 kts 249°
2026-04-30 20:17 55.21576 9.06718 38473 ft 428 kts 249°
2026-04-30 20:17 55.19275 8.97108 38467 ft 428 kts 249°
2026-04-30 20:18 55.16967 8.87520 38467 ft 427 kts 249°
2026-04-30 20:18 55.14655 8.77949 38458 ft 427 kts 249°
2026-04-30 20:19 55.12334 8.68401 38463 ft 427 kts 249°
2026-04-30 20:19 55.10011 8.58876 38464 ft 426 kts 249°
2026-04-30 20:20 55.07685 8.49349 38470 ft 426 kts 249°
2026-04-30 20:20 55.05347 8.39843 38469 ft 426 kts 249°
2026-04-30 20:21 55.02999 8.30343 38472 ft 426 kts 248°
2026-04-30 20:21 55.00957 8.22120 38471 ft 426 kts 248°
2026-04-30 20:22 54.98658 8.12890 38463 ft 426 kts 248°
2026-04-30 20:22 54.96342 8.03632 38472 ft 426 kts 248°
2026-04-30 20:23 54.94029 7.94417 38471 ft 425 kts 248°
2026-04-30 20:23 54.91252 7.85835 38476 ft 428 kts 236°
2026-04-30 20:24 54.87782 7.77434 38469 ft 428 kts 236°
2026-04-30 20:24 54.84295 7.69048 38466 ft 428 kts 236°
2026-04-30 20:25 54.79068 7.56502 38457 ft 428 kts 236°
2026-04-30 20:26 54.73837 7.44034 38458 ft 428 kts 235°
2026-04-30 20:26 54.68578 7.31554 38456 ft 428 kts 235°
2026-04-30 20:27 54.61557 7.14982 38454 ft 427 kts 235°
2026-04-30 20:28 54.54517 6.98464 38440 ft 427 kts 235°
2026-04-30 20:30 54.45700 6.77980 38435 ft 427 kts 234°
2026-04-30 20:31 54.35068 6.53446 38431 ft 427 kts 234°
2026-04-30 20:32 54.26169 6.33122 38422 ft 426 kts 233°
2026-04-30 20:33 54.20824 6.20988 38426 ft 426 kts 234°
2026-04-30 20:34 54.15465 6.08886 38415 ft 425 kts 234°